FW5249 Weather Reports


time (UTC)temp
C
wind
direction
speed
KPH
gust
KPH
rain 1hr
cm
rain 24hr
cm
rain mn
cm
humidity
%
barometer
mb
20260508154933 12 270 20.9 49.9 0.00 0.00 0.00 53 1004.9
20260508154417 12 225 17.7 49.9 0.00 0.00 0.00 52 1005.2
20260508153402 11 270 19.3 43.5 0.00 0.00 0.00 53 1005.3
20260508152849 11 270 27.4 43.5 0.00 0.00 0.00 54 1005.4
20260508152333 11 270 8.0 37.0 0.00 0.00 0.00 57 1005.4
20260508151836 10 225 20.9 37.0 0.00 0.00 0.00 58 1005.4
20260508151314 10 225 12.9 41.8 0.00 0.00 0.00 59 1005.5
20260508150807 10 270 24.1 41.8 0.00 0.00 0.00 59 1005.7
20260508150307 10 225 27.4 38.6 0.00 0.00 0.00 60 1006.0
20260508144218 10 225 20.9 43.5 0.00 0.00 0.00 61 1005.7
20260508143704 10 270 19.3 43.5 0.00 0.00 0.00 61 1005.6
20260508143205 10 225 25.7 48.3 0.00 0.00 0.00 61 1005.6
20260508142642 10 270 22.5 48.3 0.00 0.00 0.00 61 1005.6
20260508141644 10 225 25.7 46.7 0.00 0.00 0.00 60 1005.6
20260508135039 10 225 30.6 46.7 0.00 0.00 0.00 62 1005.8
20260508134540 10 225 16.1 32.2 0.00 0.00 0.00 62 1005.9
20260508134025 10 225 19.3 51.5 0.00 0.00 0.00 63 1005.9
20260508132959 9 270 20.9 43.5 0.00 0.00 0.00 63 1005.6
20260508132445 9 225 24.1 48.3 0.00 0.00 0.00 64 1005.6
20260508131934 9 225 29.0 48.3 0.00 0.00 0.00 64 1005.8
20260508131427 9 225 24.1 48.3 0.00 0.00 0.00 65 1005.4
20260508130910 9 270 25.7 48.3 0.00 0.00 0.00 64 1005.3
20260508130405 9 225 27.4 48.3 0.00 0.00 0.00 65 1005.4
20260508125856 9 225 29.0 46.7 0.00 0.00 0.00 65 1005.4
20260508125340 9 225 20.9 45.1 0.00 0.00 0.00 65 1005.3
20260508124841 8 225 25.7 45.1 0.00 0.00 0.00 65 1005.3
20260508124328 8 225 24.1 45.1 0.00 0.00 0.00 66 1005.4
20260508123809 8 225 17.7 45.1 0.00 0.00 0.00 67 1005.6
20260508122803 8 225 27.4 46.7 0.00 0.00 0.00 67 1005.4
20260508122243 8 225 17.7 43.5 0.00 0.00 0.00 68 1005.2
20260508121729 8 270 14.5 48.3 0.00 0.00 0.00 68 1005.4
20260508121229 8 225 17.7 48.3 0.00 0.00 0.00 68 1005.2
20260508120708 8 225 16.1 46.7 0.00 0.00 0.00 68 1005.5
20260508120207 8 270 14.5 33.8 0.00 0.00 0.00 68 1004.9
20260508115703 8 270 17.7 51.5 0.00 0.00 0.00 69 1005.1
20260508115136 8 270 20.9 51.5 0.00 0.00 0.00 69 1005.1
20260508114135 8 225 12.9 38.6 0.00 0.00 0.00 69 1005.1
20260508113610 8 225 12.9 43.5 0.00 0.00 0.00 68 1004.9
20260508113058 8 270 19.3 43.5 0.00 0.00 0.00 68 1004.8
20260508112036 8 270 16.1 43.5 0.00 0.00 0.00 68 1004.9
20260508111020 8 225 27.4 41.8 0.00 0.00 0.00 68 1004.7
20260508110505 8 225 16.1 41.8 0.00 0.00 0.00 69 1004.4
20260508105457 7 270 12.9 33.8 0.00 0.00 0.00 71 1004.6
20260508104939 8 225 17.7 33.8 0.00 0.00 0.00 72 1004.4
20260508104441 8 225 16.1 35.4 0.00 0.00 0.00 71 1004.2
20260508103926 8 270 12.9 37.0 0.00 0.00 0.00 66 1004.2
20260508103411 8 225 17.7 37.0 0.00 0.00 0.00 66 1004.0
20260508102357 8 270 17.7 37.0 0.00 0.00 0.00 64 1004.1
20260508101836 8 270 12.9 35.4 0.00 0.00 0.00 64 1003.9
20260508101326 8 270 14.5 37.0 0.00 0.00 0.00 64 1003.8
20260508100834 8 225 17.7 37.0 0.00 0.00 0.00 64 1003.7
20260508100304 8 225 17.7 37.0 0.00 0.00 0.00 64 1003.8
20260508095805 8 270 12.9 38.6 0.00 0.00 0.00 64 1003.7
20260508094738 8 270 16.1 37.0 0.00 0.00 0.00 64 1003.6
20260508094224 8 270 17.7 41.8 0.00 0.00 0.00 65 1003.4
20260508093727 8 225 22.5 41.8 0.00 0.00 0.00 64 1003.5
20260508093203 8 270 19.3 32.2 0.00 0.00 0.00 65 1003.6
20260508092701 8 225 14.5 37.0 0.00 0.00 0.00 64 1003.4
20260508092152 8 270 17.7 37.0 0.00 0.00 0.00 64 1003.2
20260508091640 8 225 12.9 32.2 0.00 0.00 0.00 64 1003.3
20260508091135 8 225 20.9 37.0 0.00 0.00 0.00 63 1003.2
20260508090122 8 270 14.5 40.2 0.00 0.00 0.00 63 1003.2
20260508085553 8 225 24.1 40.2 0.00 0.00 0.00 63 1003.1
20260508085055 8 225 17.7 35.4 0.00 0.00 0.00 63 1003.1
20260508084027 8 270 17.7 32.2 0.00 0.00 0.00 63 1003.0
20260508083527 8 225 20.9 32.2 0.00 0.00 0.00 63 1002.9
20260508083001 8 270 14.5 33.8 0.00 0.00 0.00 63 1003.0
20260508082459 8 270 11.3 33.8 0.00 0.00 0.00 63 1003.0
20260508081950 8 270 19.3 32.2 0.00 0.00 0.00 63 1003.1
20260508081431 8 270 11.3 33.8 0.00 0.00 0.00 63 1003.1
20260508080932 9 225 17.7 35.4 0.00 0.00 0.00 63 1002.9
20260508080422 9 270 16.1 35.4 0.00 0.00 0.00 63 1003.0
20260508075909 9 225 19.3 33.8 0.00 0.00 0.00 64 1002.9
20260508075356 9 225 12.9 33.8 0.00 0.00 0.00 64 1002.9
20260508074849 9 270 14.5 37.0 0.00 0.00 0.00 66 1002.9
20260508074338 9 225 12.9 37.0 0.00 0.00 0.00 66 1002.8
20260508073830 9 270 12.9 33.8 0.00 0.00 0.00 67 1002.9
20260508073319 9 270 14.5 33.8 0.00 0.00 0.00 68 1002.8
20260508072801 9 270 19.3 33.8 0.00 0.00 0.00 69 1002.7
20260508072252 9 270 16.1 33.8 0.00 0.00 0.00 71 1002.8
20260508071755 9 270 14.5 33.8 0.00 0.00 0.00 72 1002.6
20260508070727 8 270 16.1 32.2 0.00 0.03 0.00 76 1002.8
20260508065703 8 225 16.1 33.8 0.00 0.03 0.00 78 1002.8
20260508065156 8 270 14.5 30.6 0.00 0.03 0.00 78 1002.9
20260508064646 9 270 17.7 30.6 0.00 0.03 0.00 78 1002.8
20260508064128 9 270 14.5 24.1 0.00 0.03 0.00 78 1003.0
20260508063622 9 270 17.7 24.1 0.00 0.03 0.00 77 1002.8
20260508063113 9 270 9.7 24.1 0.00 0.03 0.00 76 1003.0
20260508062605 9 270 12.9 25.7 0.00 0.03 0.00 75 1003.2
20260508062051 9 270 6.4 25.7 0.00 0.03 0.00 75 1003.2
20260508061548 9 270 8.0 22.5 0.00 0.03 0.00 74 1003.2
20260508060519 9 270 12.9 25.7 0.00 0.03 0.00 73 1003.5
20260508060019 9 270 11.3 25.7 0.00 0.03 0.00 73 1003.4
20260508055458 9 270 12.9 25.7 0.00 0.03 0.00 72 1003.4
20260508054949 9 225 8.0 24.1 0.00 0.03 0.00 73 1003.6
20260508054445 9 270 9.7 27.4 0.00 0.03 0.00 73 1003.7
20260508053937 9 270 11.3 30.6 0.00 0.03 0.00 72 1003.5
20260508053430 10 270 11.3 46.7 0.00 0.05 0.00 71 1003.5
20260508052916 10 225 12.9 46.7 0.00 0.05 0.00 71 1003.7
20260508052403 10 270 17.7 33.8 0.00 0.05 0.00 72 1003.6
20260508051849 10 270 22.5 33.8 0.00 0.05 0.00 73 1003.6
20260508051345 10 270 17.7 33.8 0.00 0.10 0.00 73 1003.6
20260508050836 10 270 20.9 37.0 0.00 0.13 0.00 72 1003.5
20260508050325 10 225 24.1 37.0 0.00 0.18 0.00 73 1003.8
20260508045816 10 225 24.1 37.0 0.00 0.18 0.00 73 1003.6
20260508045256 10 270 19.3 33.8 0.00 0.20 0.00 74 1003.5
20260508044750 10 225 20.9 33.8 0.00 0.20 0.00 74 1003.4
20260508044246 10 225 17.7 32.2 0.00 0.23 0.00 74 1003.5
20260508043726 10 225 24.1 32.2 0.00 0.30 0.00 74 1003.1
20260508043219 10 270 14.5 27.4 0.00 0.36 0.00 75 1003.1
20260508041147 10 225 17.7 33.8 0.00 0.71 0.00 75 1003.3
20260508035613 10 225 16.1 32.2 0.00 1.65 0.00 77 1003.3
20260508035102 10 270 19.3 41.8 0.00 1.93 0.00 77 1003.3
20260508034555 10 225 24.1 41.8 0.00 2.84 0.00 77 1003.4
20260508033531 10 225 22.5 46.7 0.00 3.48 0.00 78 1003.3
20260508033018 10 225 24.1 43.5 0.00 3.48 0.00 78 1003.5
20260508032511 10 225 19.3 43.5 0.00 3.48 0.00 78 1003.4
20260508032004 10 225 24.1 37.0 0.00 3.48 0.00 79 1003.5
20260508031447 10 225 17.7 43.5 0.00 3.48 0.00 80 1003.5
20260508030942 9 180 12.9 46.7 0.00 3.48 0.00 81 1003.4
20260508030434 9 180 27.4 48.3 0.00 3.48 0.00 82 1003.3
20260508025916 9 225 24.1 56.3 0.00 3.48 3.48 84 1003.5
20260508025403 9 225 19.3 56.3 0.00 3.48 3.48 86 1003.6
20260508024852 9 180 30.6 61.2 0.00 3.48 3.48 88 1003.4
20260508024342 9 225 25.7 61.2 0.00 3.48 3.48 89 1003.5
20260508023901 9 225 30.6 54.7 0.00 3.48 3.48 88 1003.5
20260508023324 10 225 25.7 54.7 0.00 3.48 3.48 86 1003.3
20260508022815 10 225 27.4 54.7 0.00 3.48 3.48 84 1003.1
20260508022310 10 225 20.9 51.5 0.00 3.48 3.48 85 1003.0
20260508020742 9 225 22.5 45.1 0.00 3.48 3.48 87 1002.9
20260508015712 10 225 33.8 48.3 0.00 3.48 3.48 88 1002.8
20260508015209 10 270 27.4 48.3 0.00 3.48 3.48 88 1002.8
20260508014650 10 225 22.5 48.3 0.00 3.48 3.48 88 1002.8
20260508014148 10 225 20.9 48.3 0.00 3.48 3.48 88 1002.8
20260508013632 10 225 27.4 46.7 0.00 3.48 3.48 88 1002.7
20260508012615 10 180 27.4 48.3 0.00 3.48 3.48 88 1002.8
20260508011608 10 270 30.6 48.3 0.00 3.48 3.48 88 1002.8
20260508010528 10 225 32.2 53.1 0.00 3.48 3.48 90 1002.9
20260508010034 10 225 24.1 45.1 0.00 3.48 3.48 93 1002.9
20260508005507 10 225 29.0 45.1 0.00 3.48 3.48 93 1003.0
20260508005003 10 225 24.1 41.8 0.00 3.48 3.48 93 1002.9
20260508003429 10 270 17.7 46.7 0.00 3.48 3.48 89 1003.3
20260508002926 11 225 17.7 46.7 0.00 3.48 3.48 89 1003.6
20260508002412 11 270 20.9 43.5 0.00 3.48 3.48 88 1003.5
20260508001903 11 270 17.7 43.5 0.00 3.48 3.48 88 1003.4
20260508001350 11 270 22.5 33.8 0.00 3.48 3.48 88 1003.6
20260508000855 11 225 16.1 33.8 0.00 3.48 3.48 88 1003.7
20260508000328 11 225 12.9 33.8 0.00 3.48 3.48 87 1003.7
20260507235822 11 270 17.7 45.1 0.00 3.48 3.48 85 1003.8
20260507235320 11 225 14.5 48.3 0.00 3.48 3.48 85 1003.7
20260507234803 11 225 24.1 48.3 0.00 3.48 3.48 85 1003.7
20260507234256 11 225 27.4 43.5 0.00 3.48 3.48 84 1003.5
20260507233239 11 270 27.4 37.0 0.00 3.48 3.48 83 1003.6
20260507232213 11 270 20.9 33.8 0.00 3.48 3.48 85 1003.7
20260507231145 11 225 24.1 43.5 0.00 3.48 3.48 85 1003.6
20260507230650 11 225 20.9 43.5 0.00 3.48 3.48 85 1003.6
20260507230125 11 270 16.1 37.0 0.00 3.48 3.48 84 1003.8
20260507225623 11 225 17.7 35.4 0.00 3.48 3.48 84 1003.8
20260507225111 11 225 19.3 37.0 0.00 3.48 3.48 85 1003.7
20260507224047 11 270 14.5 40.2 0.00 3.48 3.48 85 1003.6
20260507223043 12 225 8.0 32.2 0.00 3.48 3.48 85 1003.2
20260507221501 11 225 20.9 33.8 0.00 3.48 3.48 86 1003.1
20260507220944 11 225 11.3 32.2 0.00 3.48 3.48 90 1002.9
20260507220453 11 225 12.9 35.4 0.00 3.48 3.48 91 1002.5
20260507215937 11 270 17.7 38.6 0.00 3.48 3.48 92 1002.4
20260507215420 12 225 19.3 38.6 0.00 3.48 3.48 91 1002.6
20260507214359 12 225 24.1 37.0 0.00 3.48 3.48 83 1002.2
20260507213850 12 270 14.5 37.0 0.00 3.48 3.48 82 1002.5
20260507213336 12 270 12.9 37.0 0.00 3.48 3.48 83 1002.5
20260507212837 12 225 12.9 33.8 0.00 3.48 3.48 83 1002.5
20260507212325 12 270 16.1 33.8 0.00 3.48 3.48 84 1002.3
20260507211801 12 270 16.1 35.4 0.00 3.48 3.48 84 1002.4
20260507211309 13 225 22.5 37.0 0.00 3.48 3.48 82 1002.4
20260507210756 13 270 22.5 37.0 0.00 3.48 3.48 81 1002.6
20260507210233 13 225 20.9 33.8 0.00 3.48 3.48 80 1002.6
20260507205741 13 270 8.0 35.4 0.00 3.48 3.48 81 1002.3
20260507205222 13 225 17.7 35.4 0.00 3.48 3.48 80 1002.5
20260507204701 13 225 12.9 29.0 0.00 3.48 3.48 80 1002.3
20260507203646 13 180 19.3 30.6 0.00 3.48 3.48 80 1002.3
20260507203135 13 270 14.5 29.0 0.00 3.48 3.48 80 1002.2
20260507202112 13 270 12.9 35.4 0.00 3.48 3.48 80 1002.4
20260507201602 13 225 17.7 37.0 0.00 3.48 3.48 79 1001.9
20260507201058 13 270 24.1 37.0 0.00 3.48 3.48 78 1002.0
20260507200552 13 225 22.5 37.0 0.00 3.48 3.48 79 1001.8
20260507200030 13 225 17.7 37.0 0.00 3.48 3.48 79 1001.5
20260507195529 13 225 20.9 35.4 0.00 3.48 3.48 79 1001.7
20260507195019 13 225 20.9 37.0 0.00 3.48 3.48 78 1001.4
20260507194003 13 225 17.7 38.6 0.00 3.48 3.48 77 1000.9
20260507193440 13 225 14.5 38.6 0.00 3.48 3.48 75 1000.9
20260507192436 13 225 14.5 33.8 0.00 3.48 3.48 73 1000.2
20260507191402 14 180 16.1 33.8 0.00 3.48 3.48 73 1000.3
20260507190344 14 225 19.3 40.2 0.00 3.48 3.48 72 1001.2
20260507185337 14 225 17.7 35.4 0.00 3.48 3.48 71 1001.3
20260507184822 15 225 17.7 33.8 0.00 3.48 3.48 71 1001.7
20260507184259 15 225 14.5 33.8 0.00 3.48 3.48 70 1002.3
20260507183239 15 270 12.9 29.0 0.00 3.48 3.48 69 1002.9
20260507182738 15 225 17.7 33.8 0.00 3.48 3.48 68 1002.7
20260507182229 15 270 22.5 35.4 0.00 3.48 3.48 68 1002.7
20260507181704 15 225 17.7 37.0 0.00 3.48 3.48 68 1002.5
20260507181155 15 270 14.5 37.0 0.00 3.48 3.48 70 1002.6
20260507180707 15 270 12.9 30.6 0.00 3.48 3.48 68 1002.9
20260507180142 15 270 17.7 29.0 0.00 3.48 3.48 68 1003.4
20260507175633 14 270 12.9 27.4 0.00 3.48 3.48 70 1003.7
20260507175118 14 270 12.9 24.1 0.00 3.48 3.48 71 1003.9
20260507174625 14 270 11.3 19.3 0.00 3.48 3.48 72 1003.9
20260507174057 14 270 11.3 20.9 0.00 3.48 3.48 72 1004.1
20260507173550 14 270 8.0 22.5 0.00 3.48 3.48 72 1003.9
20260507173047 14 270 6.4 24.1 0.00 3.48 3.48 70 1003.8
20260507172528 14 270 9.7 24.1 0.00 3.48 3.48 71 1003.8
20260507172031 14 270 11.3 30.6 0.00 3.48 3.48 72 1003.6
20260507171524 14 225 9.7 30.6 0.00 3.48 3.48 72 1003.3
20260507170957 14 270 17.7 30.6 0.00 3.48 3.48 71 1002.8
20260507165942 14 225 8.0 24.1 0.00 3.48 3.48 73 1002.0
20260507165427 14 270 9.7 27.4 0.00 3.48 3.48 74 1002.2
20260507164918 14 270 12.9 27.4 0.00 3.48 3.48 74 1002.1
20260507164417 14 270 14.5 27.4 0.00 3.48 3.48 74 1002.5
20260507163347 13 270 17.7 25.7 0.00 3.48 3.48 73 1001.7
20260507160803 14 225 12.9 29.0 0.00 3.48 3.48 75 1002.9